sat.trackr.live / text

‹ back to catalog

ASNARO

NORAD 40298 · 2014-070A

PAYLOAD ACTIVE UNKNOWN

§ Identity

Operator
Country
JPN
Launch date
2014-11-06
Launch site
DLS
Launch vehicle
Mass (kg)
RCS (m²)
2.65

Purposes: earth_obs

External: N2YO · Heavens-Above · Gunter

§ Orbital elements

Epoch: 2026-05-25T04:15:32.264928Z

Period
94.76 min
Inclination
97.3451°
Eccentricity
0.0003141
Mean motion
15.19707313 rev/d
Perigee alt
504.6 km
Apogee alt
508.9 km
Semi-major
6,884.9 km
B*
2.2668e-4
RAAN
221.9097°
Arg perigee
200.1106°
Mean anomaly
160.0006°
Rev number
64,051

§ Raw data

ASNARO1 40298U 14070A   26145.17745677  .00004775  00000+0  22668-3 0  99962 40298  97.3451 221.9097 0003141 200.1106 160.0006 15.19707313640519

JSON: /api/v1/satellites/40298 · /tle

For live sub-satellite position, see the globe view (requires WebGL).

§ Visibility from observer

Set your observer location to see the next 7 days of passes ≥ 10°. The values pass through the URL so the page stays shareable.

No JS? Fill the form by hand. The geolocation button needs JavaScript.

§ Radio — SatNOGS DB

ModeDescriptionDownlinkUplink
BPSK S-band telemetry 2.272 GHz

1 transmitter · refreshed weekly from db.satnogs.org